User: anonymous
Location: Goodsell Observatory
(44.4617°N, 93.1522°W)
Time: 22:12:33
(UTC-05:00)
Language:

HST - Orbit

View from above orbital plane
View from above orbital plane
View from above satellite
View from above satellite

Ground track
Ground track

The orbit data is extracted from the following two-line orbital elements,

1 20580U 90037B   14240.69800633  .00005196  00000-0  35029-3 0   961
2 20580 028.4707 280.3991 0002982 349.8293 010.2721 15.05657398135658
Epoch (UTC): 28 August 2014 16:45:07
Eccentricity: 0.0002982
inclination: 28.4707°
perigee height: 547 km
apogee height: 551 km
right ascension of ascending node: 280.3991°
argument of perigee: 349.8293°
revolutions per day: 15.05657398
mean anomaly at epoch: 10.2721°
orbit number at epoch: 13565

The dashed part of the orbit path shows where the satellite is in the earth's shadow,  

DLR